Theta_e
329 326 323 326 331 332 332 333 332 332 332 331 331 331 332 331 336 343 338 337 339 338 334 335 334 334 334 331 328 328 327 326 325 323 324 329 325 317 327 329 332 328 324 316 313 312 313 314 314
329 329 326 327 331 332 332 331 332 332 333 331 331 332 333 336 336 338 338 336 338 338 337 335 334 334 333 331 331 331 330 330 327 319 322 323 321 326 330 325 330 329 329 320 318 314 314 314 314
330 329 329 328 331 331 332 330 331 333 333 333 333 334 335 336 337 338 338 336 338 338 337 333 333 334 332 331 332 332 332 329 327 327 328 326 325 330 330 326 328 328 323 323 317 314 314 314 314
330 331 330 329 331 330 328 327 330 334 333 334 334 333 335 336 337 338 338 338 339 338 340 331 328 331 330 331 332 332 330 328 327 327 326 325 326 328 328 327 328 326 318 320 315 314 314 314 314
330 330 333 334 329 328 325 324 328 333 332 333 333 331 332 336 336 338 338 338 338 338 338 324 325 329 329 332 332 333 330 328 327 327 328 324 319 325 326 328 328 325 315 314 314 314 314 314 314
332 331 334 335 334 327 326 328 328 332 331 332 331 330 333 337 336 336 339 339 338 339 336 327 323 328 330 331 333 333 330 329 326 321 319 315 315 321 322 322 327 325 314 314 314 314 314 314 314
331 333 334 333 333 330 326 328 330 332 330 331 332 330 334 336 337 334 336 339 338 336 334 334 324 326 330 332 333 332 330 329 328 325 314 314 314 320 324 323 323 326 317 314 315 314 314 314 314
330 332 333 332 334 332 325 328 328 328 330 331 332 331 330 335 332 333 337 338 337 334 333 334 335 325 328 331 331 330 329 327 328 325 318 313 313 314 318 323 326 324 318 315 314 315 315 314 314
329 333 333 332 333 332 324 324 325 326 328 328 333 332 332 335 328 333 338 337 336 334 333 333 332 331 334 331 330 329 328 326 325 322 318 315 321 318 316 324 321 315 315 315 315 315 315 315 315
327 329 330 330 331 332 329 324 325 327 328 330 331 332 329 328 328 331 336 336 335 335 333 332 331 331 331 330 326 326 326 327 326 323 320 321 323 322 322 315 315 315 315 315 315 315 315 316 319
327 328 327 328 329 331 331 325 323 326 327 328 328 331 333 330 329 331 332 333 334 334 333 331 331 330 330 329 326 326 326 326 327 328 319 320 322 317 315 314 315 316 316 316 316 316 316 318 319
330 327 325 325 327 327 329 330 330 328 327 326 327 329 333 334 329 329 331 333 335 335 333 330 329 330 329 328 327 327 326 325 329 325 319 317 314 313 315 315 315 316 316 318 316 317 316 316 316
330 328 326 327 327 325 324 324 327 327 328 326 324 324 330 333 334 334 333 332 334 333 334 331 329 329 329 327 327 327 327 325 325 324 315 315 314 312 313 315 315 316 316 317 317 317 316 316 316
324 324 324 327 327 328 326 326 326 326 325 325 322 323 325 329 333 334 334 333 333 333 333 333 330 329 328 326 325 327 325 325 325 325 316 313 314 312 312 313 314 315 316 317 317 317 317 316 316
324 325 324 322 323 324 327 329 329 327 325 326 326 325 325 327 331 333 333 331 330 328 333 333 332 330 327 324 326 325 322 322 323 321 316 312 312 313 312 312 314 315 315 316 316 316 316 316 317
324 325 327 325 323 322 323 323 320 323 326 326 327 327 326 326 328 331 333 332 330 327 332 332 331 331 330 326 324 323 323 318 315 315 312 311 312 312 312 312 313 314 315 315 315 316 317 318 322
324 327 327 327 324 324 325 324 319 319 318 322 325 326 328 327 329 330 331 332 332 328 332 332 331 331 331 329 326 323 321 319 315 315 313 311 311 311 312 312 313 314 314 315 315 318 319 322 322
326 326 325 326 325 325 326 326 324 321 322 321 321 322 324 328 329 329 331 331 332 329 331 332 331 330 330 330 329 327 324 320 318 316 314 312 311 312 313 314 314 315 315 316 316 317 319 320 323
324 325 325 324 324 324 325 326 324 323 322 321 321 321 323 327 329 329 330 331 331 330 329 331 331 330 330 330 330 330 328 324 319 318 316 314 313 312 314 315 316 316 316 316 317 318 319 320 321
324 325 325 324 324 324 325 325 324 323 323 322 321 321 320 319 324 327 328 330 331 329 326 326 326 328 329 330 329 330 329 328 324 318 315 314 313 313 314 315 315 316 316 316 317 318 319 320 324
323 324 323 324 323 323 323 325 324 323 322 322 322 321 321 320 320 321 327 328 330 331 328 324 325 324 325 329 330 329 330 329 328 326 319 314 313 314 314 314 316 316 317 317 317 318 319 320 321
322 321 322 322 323 328 323 328 325 325 325 324 322 321 320 320 319 320 324 327 328 330 328 327 325 324 323 325 329 330 329 330 330 329 326 323 315 314 314 314 315 316 317 317 318 318 318 319 321
320 320 322 322 323 323 325 325 324 323 324 323 323 321 321 320 320 320 321 327 328 328 329 327 327 325 324 325 325 329 330 329 330 330 329 328 325 318 315 314 314 315 315 316 317 318 318 319 319
319 321 321 321 321 324 324 325 323 323 323 323 323 322 321 320 320 320 320 321 326 328 328 328 328 326 324 327 325 324 323 327 330 330 330 330 329 326 323 319 317 316 316 317 317 317 318 318 319
320 321 324 324 322 326 322 325 324 322 322 322 322 322 321 321 320 320 320 321 321 323 327 327 327 328 326 324 325 324 323 322 326 329 329 330 330 330 328 325 324 325 323 321 321 320 320 320 320
317 318 326 325 326 323 321 324 324 322 322 322 321 321 320 320 319 320 320 321 321 321 322 326 325 326 327 327 327 325 324 323 324 326 328 330 329 329 329 329 327 324 323 323 324 324 323 323 322
318 318 317 320 320 321 322 322 321 321 320 319 320 319 320 320 319 318 317 318 321 322 321 321 323 322 324 326 327 326 324 323 324 324 325 325 326 328 329 329 329 329 328 327 326 325 325 325 325
314 315 321 319 326 325 319 320 319 321 321 320 320 320 320 320 320 320 319 319 318 319 321 321 321 323 323 325 326 326 324 322 323 325 326 324 323 325 327 328 329 329 328 328 328 327 327 327 327
316 316 315 318 319 321 322 319 318 318 319 320 320 319 319 319 319 319 318 318 318 318 319 320 320 321 322 324 326 326 326 324 323 323 323 324 324 323 324 325 327 326 327 327 328 327 327 326 326
314 316 317 322 321 320 320 321 319 319 319 318 319 318 318 317 316 316 316 317 316 317 317 318 320 322 321 323 324 325 325 325 325 323 322 323 324 323 324 325 325 326 327 327 328 327 326 326 325
Wind_Speed
12 15 13 5 6 3 3 3 1 5 4 3 4 1 7 5 9 4 11 11 14 14 13 14 14 11 12 10 7 5 4 4 5 5 5 4 4 8 11 16 14 8 13 15 16 17 18 18 18
9 12 6 6 6 5 2 3 2 4 6 6 4 1 2 5 4 4 12 15 14 14 13 13 12 12 12 8 6 4 3 3 2 5 7 8 8 12 12 14 14 12 13 15 16 17 17 16 16
14 7 8 6 4 7 6 4 2 5 7 5 4 2 2 3 2 9 8 19 14 15 13 13 12 12 10 8 7 5 2 1 2 8 9 10 11 14 12 14 13 11 14 15 15 15 15 14 14
8 3 4 7 11 3 5 5 3 7 3 3 2 3 2 2 3 8 12 17 15 14 12 12 12 11 9 9 7 4 1 1 6 10 10 11 12 13 13 15 13 10 15 14 14 13 13 13 13
4 4 6 11 10 4 2 3 7 7 4 5 4 1 1 2 5 9 16 16 16 14 12 13 12 11 10 10 8 5 1 1 3 10 10 10 12 13 12 15 13 10 13 14 13 12 12 12 12
9 6 6 12 16 4 4 5 4 9 1 2 3 3 2 5 7 11 16 16 14 14 12 12 14 13 12 10 10 6 2 2 6 5 9 9 11 12 11 13 13 10 12 12 12 11 10 11 10
14 7 13 14 14 9 3 1 6 9 7 4 2 3 2 7 9 12 16 15 15 14 13 11 15 15 13 12 11 8 6 6 6 2 4 7 10 12 11 10 12 11 10 11 10 9 8 8 8
10 13 16 13 13 15 4 3 3 7 6 4 3 3 2 8 12 14 16 16 15 14 13 12 14 15 15 15 13 11 9 9 8 5 4 7 8 10 12 11 10 10 10 9 8 7 6 6 6
4 9 13 18 15 14 8 5 5 4 7 5 5 3 3 10 13 16 17 17 16 15 15 15 14 13 13 14 16 13 11 11 10 8 7 7 7 8 11 11 10 8 8 7 6 5 4 4 4
10 11 18 16 16 12 13 12 8 6 10 9 8 8 7 9 14 19 22 20 20 17 16 16 16 16 15 13 15 15 15 15 13 11 11 10 9 9 11 10 9 9 8 6 5 3 3 2 3
9 16 15 19 16 17 19 16 9 8 10 11 13 12 11 13 16 19 21 21 22 20 17 18 18 17 17 16 15 15 16 13 15 13 13 14 13 12 10 11 11 11 10 8 5 3 2 3 2
11 17 22 17 14 13 18 23 28 18 20 7 6 3 13 17 19 21 22 22 20 21 21 20 19 18 18 16 17 16 16 17 16 15 14 16 15 14 13 13 12 12 11 8 6 4 4 3 2
13 21 16 18 15 13 13 15 19 23 23 20 9 10 13 17 19 20 20 21 21 22 22 22 21 20 19 19 17 16 17 18 15 15 16 16 17 16 15 15 14 14 13 11 9 7 5 5 4
7 11 22 17 18 17 13 21 19 13 16 19 15 14 13 18 19 19 22 23 24 23 22 22 23 22 21 21 19 17 17 16 17 17 19 19 18 18 18 17 16 15 14 12 10 8 7 6 5
8 12 12 20 18 14 12 21 23 23 23 19 23 20 17 19 19 23 23 25 26 25 23 25 25 25 23 23 20 19 19 18 19 20 20 21 21 20 20 19 18 17 15 14 12 11 10 8 8
6 10 16 18 19 18 10 24 17 21 29 31 29 26 22 20 21 21 23 24 25 25 26 25 28 29 26 26 24 22 21 22 22 22 23 23 23 22 22 21 20 18 17 16 14 12 11 10 8
8 11 18 20 22 13 16 19 19 25 25 25 28 32 33 31 24 22 24 25 25 25 26 28 29 31 30 28 27 26 25 25 24 24 25 25 25 25 23 22 20 20 19 18 16 14 12 11 11
7 10 16 17 13 14 20 23 21 22 19 21 25 28 31 35 37 31 28 27 26 26 26 27 30 32 32 31 29 27 28 28 27 27 27 27 26 26 25 23 22 22 21 20 18 17 15 14 13
15 12 20 19 16 2 19 22 23 28 30 30 30 30 27 30 31 31 30 30 29 28 29 30 32 35 34 36 36 34 33 32 31 31 30 29 27 28 28 27 24 24 24 22 20 19 18 18 16
18 15 17 18 14 10 19 24 23 25 25 32 31 33 33 31 31 28 30 33 35 37 33 34 36 36 38 39 39 37 34 33 33 33 34 32 31 31 31 30 27 27 26 25 24 23 21 20 18
20 14 13 17 11 17 17 25 25 30 34 36 36 34 35 34 34 35 32 35 35 38 39 37 39 38 39 41 40 38 33 30 32 35 35 36 35 35 33 31 31 29 28 28 27 26 26 24 21
21 19 18 16 11 11 10 12 20 24 21 22 29 31 36 36 36 35 34 36 40 42 43 44 41 41 41 41 43 45 45 43 42 38 37 37 37 36 35 36 33 32 32 31 31 29 28 27 25
22 14 11 10 14 10 16 7 16 19 24 22 21 28 30 33 31 34 36 38 40 41 44 47 47 46 44 46 46 46 47 45 42 40 38 37 37 37 37 38 36 35 35 34 34 33 32 31 31
4 5 7 10 12 11 23 20 14 17 24 23 24 27 28 27 29 30 33 35 39 39 42 44 43 47 46 47 48 49 48 47 47 45 41 41 40 38 38 39 38 37 37 37 36 34 35 34 33
8 7 4 4 5 7 17 17 23 15 17 19 17 16 21 22 25 24 27 31 35 38 40 46 48 49 49 51 51 51 49 48 48 47 46 45 45 42 40 39 39 40 39 40 37 37 37 37 37
15 10 4 8 4 8 11 9 13 18 21 31 31 22 24 21 20 22 24 27 33 36 37 42 47 49 50 51 54 54 51 50 51 49 47 46 48 45 40 40 41 40 39 38 38 38 37 37 37
11 11 21 11 18 6 7 17 16 15 14 13 18 21 24 25 24 24 25 27 26 28 34 42 44 48 49 52 53 54 55 53 54 51 49 48 47 45 43 43 40 38 38 38 38 39 38 37 37
26 15 8 7 6 8 12 21 14 9 14 12 14 20 22 20 18 19 25 28 31 32 32 33 39 41 45 48 52 54 53 53 52 52 52 49 48 45 45 42 40 38 35 35 36 37 38 37 36
18 21 20 12 12 14 15 15 16 19 19 20 17 21 14 13 14 17 21 21 22 26 30 32 32 35 40 43 47 50 53 51 49 51 52 49 48 46 45 42 40 36 35 34 35 36 37 36 34
19 23 23 5 7 9 18 21 13 4 6 7 13 6 9 10 17 12 14 15 15 22 26 31 34 35 34 41 43 47 49 50 49 48 48 48 47 45 44 41 38 35 34 33 34 35 36 35 33
Wind_Direction
26 10 350 323 269 237 266 106 9 112 139 89 125 296 3 2 359 23 144 147 150 149 168 155 153 158 160 160 158 154 162 172 183 192 194 188 161 118 112 111 111 96 98 99 101 97 91 90 84
355 17 329 288 267 268 89 78 195 116 88 137 152 221 255 69 58 112 148 148 149 151 153 170 170 168 170 168 164 171 172 190 207 147 143 140 141 126 122 120 119 112 102 101 99 97 95 88 87
338 8 344 315 280 269 334 18 24 110 133 157 179 267 2 61 79 140 156 152 155 151 168 170 167 172 176 176 174 179 167 203 141 128 131 132 126 129 123 114 118 117 106 106 105 96 92 88 85
316 295 279 265 273 324 330 0 329 155 170 193 254 206 108 175 131 152 164 157 162 161 169 175 176 178 184 179 181 174 156 79 129 141 139 139 136 134 135 119 126 119 114 112 103 98 92 88 85
289 241 228 248 271 276 318 316 291 210 149 170 205 81 98 139 171 163 159 165 170 170 163 175 179 179 189 183 180 175 143 55 139 140 140 144 143 137 134 127 130 131 117 114 108 100 92 88 82
251 231 225 229 242 214 297 300 223 242 183 123 234 254 101 167 158 167 169 168 171 165 176 184 183 187 183 188 184 178 205 158 147 140 146 143 143 141 140 138 136 133 123 120 113 102 95 87 81
257 221 238 245 241 248 273 225 213 215 221 209 304 259 123 175 178 178 176 170 177 179 172 192 185 188 191 188 189 197 218 204 188 183 170 160 151 148 145 141 139 138 130 124 114 104 95 89 83
272 260 251 243 239 239 139 190 225 245 223 194 192 264 144 192 202 185 168 177 185 184 178 183 193 192 195 199 197 205 217 208 210 217 190 178 169 167 161 150 142 148 137 124 114 107 101 89 84
265 253 246 243 232 233 147 218 202 232 248 216 206 262 175 179 196 188 176 185 194 193 188 186 195 183 190 198 207 209 203 201 213 205 192 182 171 159 161 161 162 148 138 135 124 113 101 90 76
232 239 250 257 250 252 222 229 203 198 223 228 229 233 207 209 198 197 191 194 201 203 198 194 193 189 194 192 210 205 204 205 206 199 193 158 177 192 186 180 169 161 159 158 153 133 121 94 39
242 242 255 258 268 272 267 221 221 235 246 247 247 215 207 216 210 205 207 208 205 208 206 201 198 195 196 198 197 198 201 202 198 198 193 187 189 193 187 185 181 180 180 183 182 180 176 177 186
253 246 254 266 278 284 268 263 257 243 250 268 264 201 209 211 219 217 214 213 212 212 211 209 203 199 202 201 197 196 198 200 204 204 206 206 205 199 195 195 194 194 197 200 203 216 221 231 237
238 260 252 260 262 267 268 261 263 263 258 249 245 231 216 224 223 221 220 220 213 218 214 213 207 204 203 203 203 201 202 205 204 209 215 210 210 209 205 204 204 202 205 206 215 227 228 235 247
313 280 267 250 260 255 265 262 257 261 258 249 241 227 223 230 229 221 219 216 220 214 214 214 212 211 208 211 209 208 209 213 209 212 219 212 211 211 211 212 211 210 212 213 217 228 234 238 250
289 275 263 249 248 262 270 262 250 257 257 257 251 248 239 231 225 225 226 226 225 217 214 212 217 217 215 217 213 213 219 215 215 217 219 215 213 214 214 216 216 217 218 217 222 229 235 241 247
302 288 256 243 238 238 237 260 260 249 247 253 249 250 240 234 226 226 227 230 225 222 215 215 220 222 220 222 221 220 221 224 223 222 222 219 217 217 217 219 219 221 223 222 227 234 238 238 239
220 247 246 265 268 229 216 268 260 251 252 256 254 249 248 242 233 230 226 227 226 223 215 215 218 223 225 225 225 226 227 228 228 226 227 225 221 219 220 221 223 225 226 226 229 233 233 238 241
203 226 242 248 244 219 248 252 261 251 241 255 256 256 249 246 241 236 229 223 221 225 217 217 218 226 222 227 227 228 230 230 227 228 229 227 224 222 222 222 225 227 228 229 232 235 240 234 244
230 254 257 257 243 293 263 259 260 254 253 253 253 255 253 250 243 240 235 227 221 225 218 216 217 225 222 223 226 227 227 230 229 229 230 229 227 226 226 226 227 231 231 234 238 240 238 250 241
241 248 259 267 259 208 253 264 267 258 254 253 251 249 249 250 249 246 238 229 223 228 228 223 224 224 223 227 229 231 231 233 235 234 233 233 232 230 230 229 230 233 235 236 237 240 244 244 241
236 233 243 246 245 242 271 274 261 256 253 251 248 245 250 245 245 243 238 231 226 223 226 230 227 227 228 227 227 229 227 226 232 234 236 236 235 234 235 234 232 236 239 241 242 244 246 247 250
245 235 232 241 261 244 204 276 268 257 251 231 237 240 243 245 242 240 239 233 230 226 234 232 230 230 231 230 230 228 229 230 234 237 237 239 237 236 237 237 237 239 242 243 246 248 250 251 245
250 248 222 243 242 259 239 261 261 255 256 250 240 233 242 245 241 239 237 234 232 232 235 237 238 235 232 229 231 230 233 236 239 235 238 238 240 237 238 240 240 241 243 246 247 250 252 253 255
226 222 238 250 247 251 238 225 257 241 252 253 247 240 246 245 242 239 239 237 234 233 237 236 234 234 233 229 233 232 235 238 236 236 238 240 241 241 239 241 242 243 245 246 249 251 254 256 257
196 156 221 215 212 235 232 227 245 270 261 267 264 243 246 248 248 242 239 239 238 231 229 236 237 236 237 236 235 236 236 238 240 240 238 239 243 242 240 240 241 243 244 248 251 253 255 257 260
206 209 231 215 199 249 209 239 232 234 254 254 259 258 255 255 239 242 240 244 240 237 230 233 238 240 237 235 236 240 239 238 241 239 239 239 247 250 248 245 244 246 247 250 252 254 256 258 260
233 213 235 267 276 262 227 259 257 263 262 251 253 251 251 256 253 259 259 263 254 253 247 239 240 242 239 239 240 240 241 239 240 243 240 244 249 250 251 249 248 248 248 250 251 252 254 255 258
236 238 220 200 214 220 228 250 259 262 258 258 244 250 253 258 264 270 274 269 270 261 255 248 243 244 244 240 240 241 241 242 242 244 242 244 246 248 248 250 250 249 247 246 245 248 252 253 255
218 233 236 272 240 257 264 256 264 271 274 266 251 243 264 258 274 277 273 271 272 262 257 249 246 244 242 241 234 236 239 241 243 245 244 245 245 245 247 249 248 249 243 242 243 246 250 252 252
252 226 224 227 212 249 251 262 270 293 320 339 330 304 253 271 302 313 302 281 305 281 266 249 247 248 248 242 239 239 239 241 243 243 241 242 244 244 245 246 245 243 240 240 242 246 248 249 249